Location: Bottenau
(48.5138°N, 8.0462°E)
Time: 15:59:39
(UTC+00:00)

Cosmos 1833 - Pass Details

Date: 18 April 2021
Orbit: 835 x 863 km, 70.9° (Epoch: 07 May)

Event Time Altitude Azimuth Distance (km) Brightness Sun altitude
Rises 19:01:00 0° 206° (SSW) 3,372 7.4 -6.6°
Reaches altitude 10° 19:03:25 10° 207° (SSW) 2,444 6.6 -6.9°
Maximum altitude 19:09:02 89° 295° (WNW) 846 4.3 -7.8°
Drops below altitude 10° 19:14:44 10° 28° (NNE) 2,473 6.6 -8.6°
Sets 19:17:12 0° 29° (NNE) 3,416 7.4 -9.0°
